Simultaneous Nadir Overpasses (SNOs) Predictions

Prediction of SNOs between AQUA and NPP Satellite Orbit:

Table of predicted SNOs for the next 14.0 days since TLE Epoch: 11/25/2017
Index Date (AQUA) Time (AQUA) Lat,Lon (AQUA) SZA (AQUA ) Date (NPP) Time (NPP) Lat,Lon (NPP) SZA (NPP ) Distance(km) Time Diff (sec)
1 11/27/2017 05:32:21 -75.37, 154.19 62.22 11/27/2017 05:31:33 -75.37, 154.13 62.16 1.77 48
2 11/27/2017 06:21:21 76.60, -34.37 116.50 11/27/2017 06:21:50 76.60, -34.38 116.47 0.26 29
3 11/29/2017 21:48:38 -75.99, -88.14 62.36 11/29/2017 21:48:14 -75.99, -88.11 62.34 0.93 24
4 11/29/2017 22:37:41 77.05, 83.11 116.51 11/29/2017 22:38:34 77.06, 83.20 116.44 2.52 53
5 12/02/2017 13:17:37 69.80,-152.54 124.11 12/02/2017 13:16:23 69.93,-153.15 124.31 27.54 74
6 12/02/2017 14:05:03 -76.19, 28.39 62.12 12/02/2017 14:05:04 -76.19, 28.35 62.11 1.39 1
7 12/02/2017 14:51:04 81.74,-100.67 107.16 12/02/2017 14:52:17 81.18,-101.18 106.84 62.78 73
8 12/05/2017 05:32:22 75.31, -25.96 119.21 12/05/2017 05:31:31 75.31, -26.05 119.28 2.61 51
9 12/05/2017 06:21:19 -76.82, 146.39 62.39 12/05/2017 06:21:44 -76.83, 146.50 62.44 2.91 25
10 12/07/2017 21:48:34 76.10, 92.24 118.75 12/07/2017 21:48:07 76.11, 92.30 118.76 1.73 27




NCC Satellite Simultaneous Nadir Overpasses (SNOs) Prediction Service
